Change the Weather History Date:

Sunday, March 16, 2014

  Actual Average Record
Temperature  
Mean Temperature 51 °F 58 °F  
Max Temperature 59 °F 69 °F 90 °F (1938)
Min Temperature 42 °F 46 °F 29 °F (1913)
Degree Days  
Heating Degree Days 14 8  
Month to date heating degree days 240 155  
Since 1 July heating degree days 2364 2059  
Cooling Degree Days 0 1  
Month to date cooling degree days 3 16  
Year to date cooling degree days 8 28  
Moisture  
Dew Point 45 °F    
Average Humidity 79    
Maximum Humidity 93    
Minimum Humidity 65    
Precipitation  
Precipitation 0.00 in 0.15 in 0.95 in (1973)
Month to date precipitation 1.76 2.22  
Year to date precipitation 4.74 9.58  
Snow  
Snow 0.00 in - - ()
Month to date snowfall 0.1  
Since 1 July snowfall 0.3  
Snow Depth 0.00 in    
Sea Level Pressure  
Sea Level Pressure 29.81 in    
Wind  
Wind Speed 16 mph (NW)    
Max Wind Speed 26 mph    
Max Gust Speed 36 mph    
Visibility 10 miles    
Events      
T = Trace of Precipitation, MM = Missing Value Source: NWS Daily Summary

Daily Weather History Graph

Daily Weather History Graph

Search for Another Location

Airport or City:

Trip Planner

Search our weather history database for the weather conditions in past years. The results will help you decide how hot, cold, wet, or windy it might be!

Date:

Astronomy

Mar. 16, 2014 Rise Set
Actual Time 7:27 AM CDT 7:27 PM CDT
Civil Twilight 7:03 AM CDT 7:52 PM CDT
Nautical Twilight 6:34 AM CDT 8:20 PM CDT
Astronomical Twilight 6:06 AM CDT 8:49 PM CDT
Moon 7:43 PM CDT (3/16) 7:12 AM CDT (3/16)
Length of Visible Light 12h 48m
Length of Day
11h 59m
Full, 100% of the Moon is Illuminated
Mar 16
Full
Mar 16
Full
Mar 23
Last Quarter
Mar 30
New
Apr 7
First Quarter

Hourly Weather History & Observations

Time (CDT) Temp. Windchill Dew Point Humidity Pressure Visibility Wind Dir Wind Speed Gust Speed Precip Events Conditions
12:53 AM 55.9 °F - 54.0 °F 93% 29.68 in 10.0 mi South 8.1 mph - 0.00 in   Clear
1:53 AM 55.9 °F - 54.0 °F 93% 29.70 in 10.0 mi SSW 8.1 mph - N/A   Clear
2:53 AM 55.9 °F - 53.1 °F 90% 29.71 in 10.0 mi WSW 4.6 mph - N/A   Clear
3:53 AM 55.9 °F - 53.1 °F 90% 29.70 in 10.0 mi WSW 5.8 mph - 0.01 in   Clear
4:25 AM 55.4 °F - 53.6 °F 94% 29.71 in 10.0 mi WNW 6.9 mph - N/A   Mostly Cloudy
4:36 AM 55.4 °F - 53.6 °F 94% 29.72 in 10.0 mi WNW 11.5 mph - N/A   Mostly Cloudy
4:53 AM 55.9 °F - 53.1 °F 90% 29.72 in 10.0 mi West 6.9 mph - N/A   Mostly Cloudy
5:11 AM 55.4 °F - 53.6 °F 94% 29.72 in 10.0 mi WNW 9.2 mph - N/A   Mostly Cloudy
5:53 AM 55.0 °F - 52.0 °F 89% 29.73 in 10.0 mi WNW 12.7 mph - N/A   Overcast
6:18 AM 53.6 °F - 51.8 °F 94% 29.74 in 10.0 mi WNW 9.2 mph - N/A   Scattered Clouds
6:53 AM 54.0 °F - 51.1 °F 90% 29.73 in 10.0 mi WNW 10.4 mph - N/A   Scattered Clouds
7:17 AM 53.6 °F - 50.0 °F 88% 29.73 in 10.0 mi WNW 10.4 mph - N/A   Mostly Cloudy
7:53 AM 53.1 °F - 50.0 °F 89% 29.76 in 10.0 mi WNW 9.2 mph - N/A   Mostly Cloudy
8:44 AM 53.6 °F - 50.0 °F 88% 29.77 in 10.0 mi WNW 12.7 mph - N/A   Scattered Clouds
8:53 AM 55.0 °F - 51.1 °F 86% 29.78 in 10.0 mi WNW 10.4 mph - N/A   Partly Cloudy
9:53 AM 57.9 °F - 51.1 °F 78% 29.81 in 10.0 mi NW 16.1 mph 24.2 mph N/A   Partly Cloudy
10:53 AM 55.9 °F - 50.0 °F 80% 29.82 in 10.0 mi NW 16.1 mph 31.1 mph N/A   Overcast
11:12 AM 53.6 °F - 48.2 °F 82% 29.83 in 10.0 mi NW 19.6 mph - N/A   Overcast
11:53 AM 54.0 °F - 46.0 °F 75% 29.86 in 10.0 mi NNW 18.4 mph 28.8 mph N/A   Overcast
12:53 PM 52.0 °F - 44.1 °F 74% 29.86 in 10.0 mi NW 19.6 mph 29.9 mph N/A   Overcast
1:53 PM 50.0 °F - 41.0 °F 71% 29.87 in 10.0 mi NW 21.9 mph 28.8 mph N/A   Overcast
2:53 PM 48.9 °F - 39.0 °F 69% 29.85 in 10.0 mi NNW 21.9 mph 29.9 mph N/A   Overcast
3:53 PM 46.9 °F - 37.0 °F 68% 29.86 in 10.0 mi NNW 17.3 mph 27.6 mph N/A   Overcast
4:53 PM 46.0 °F 37.6 °F 37.0 °F 71% 29.85 in 10.0 mi NW 24.2 mph 32.2 mph N/A   Overcast
5:53 PM 44.1 °F 36.5 °F 35.1 °F 71% 29.88 in 10.0 mi NNW 17.3 mph 28.8 mph N/A   Overcast
6:53 PM 44.1 °F 36.2 °F 34.0 °F 68% 29.91 in 10.0 mi NNW 18.4 mph 27.6 mph N/A   Overcast
7:53 PM 43.0 °F 35.7 °F 34.0 °F 71% 29.93 in 10.0 mi North 15.0 mph 24.2 mph N/A   Overcast
8:53 PM 43.0 °F 34.5 °F 32.0 °F 65% 29.95 in 10.0 mi North 19.6 mph 26.5 mph N/A   Overcast
9:53 PM 42.1 °F 34.2 °F 32.0 °F 67% 29.99 in 10.0 mi NNW 16.1 mph 25.3 mph N/A   Overcast
10:53 PM 42.1 °F 35.7 °F 32.0 °F 67% 30.01 in 10.0 mi NNW 11.5 mph - N/A   Overcast
11:53 PM 42.1 °F 37.1 °F 32.0 °F 67% 30.00 in 10.0 mi NNW 8.1 mph - N/A   Overcast